Lid_Strength_Index
1 3 4 5 10 11 13 12 10 10 10 9 8 7 7 7 8 11 4 2 -0 -0 -1 -1 -1 -1 -2 -2 -2 -2 -2 -1 -1 -2 -2 -2 -2 -2 -2 -2 -2 -2 -2 -2 -2 -1 -2 -2 -2
3 2 4 7 12 15 14 12 10 10 9 8 8 9 8 8 4 4 4 1 0 -0 -1 -1 -0 -1 -2 -2 -2 -2 -2 -2 -1 -1 -2 -2 -2 -2 -2 -2 -2 -2 -2 -2 -2 -2 -1 -2 -2
2 3 8 9 13 15 14 12 10 9 9 9 9 8 7 7 5 4 3 1 -0 -0 -0 -1 -1 -2 -2 -2 -2 -2 -2 -2 -2 -1 -2 -2 -2 -2 -2 -2 -2 -2 -2 -2 -2 -2 -2 -2 -2
5 6 8 12 14 12 11 11 9 9 9 8 8 9 6 4 4 3 2 1 1 -0 -0 -0 -1 -2 -2 -2 -2 -2 -2 -2 -2 -2 -2 -2 -2 -2 -2 -2 -2 -2 -2 -2 -2 -1 -2 -2 -2
6 8 11 13 14 12 11 9 9 9 10 10 8 10 8 5 3 2 3 1 2 0 -1 -1 -1 -1 -2 -2 -2 -2 -2 -2 -2 -2 -2 -2 -2 -2 -2 -2 -2 -2 -2 -2 -2 -1 -1 -1 -1
8 9 13 14 14 12 11 10 9 11 10 9 9 9 8 5 3 4 2 3 1 0 -0 -1 1 0 -1 -1 -2 -2 -2 -2 -2 -2 -2 -1 -2 -2 -2 -2 -2 -2 -2 -2 -1 -0 0 0 1
9 11 13 13 13 12 10 9 11 10 10 10 8 10 9 7 5 5 6 7 7 6 2 0 -0 1 1 -0 -0 -1 -1 -1 -2 -2 -1 -1 -1 -2 -2 -2 -2 -2 -2 -2 -2 0 1 2 2
9 11 13 13 13 12 10 9 10 9 10 8 8 11 11 9 6 4 6 8 9 9 8 7 4 -0 0 0 1 1 -0 -1 -1 -1 -0 0 -0 -1 -1 -1 -2 -2 -2 -2 -1 0 1 2 2
9 13 15 13 12 11 10 10 10 9 9 9 9 9 9 7 6 6 6 6 7 8 10 9 8 6 1 -0 1 2 1 0 0 1 2 2 -0 -1 -0 -0 -1 -2 -2 -2 -1 -0 1 2 2
10 13 13 11 11 11 9 10 9 10 10 10 10 9 7 7 7 8 9 9 9 8 7 6 7 7 6 1 -0 0 0 0 -0 -0 1 -0 -0 0 0 1 0 -1 -1 -2 -2 -1 -0 3 6
10 12 11 10 9 9 9 10 9 10 12 10 10 9 8 8 8 9 9 9 9 9 7 6 5 5 5 3 0 0 1 1 1 1 0 1 0 1 2 2 1 1 1 0 0 1 3 4 5
12 10 10 8 8 9 10 9 10 10 11 9 9 9 9 9 9 9 9 9 9 8 6 5 4 4 5 6 0 0 1 2 2 1 -0 0 1 0 1 0 -0 1 1 1 1 1 2 3 4
11 10 9 8 9 9 8 10 10 11 10 9 9 9 10 10 10 10 9 9 9 7 7 6 5 4 3 6 0 1 3 3 3 2 1 1 1 1 0 1 1 2 2 2 3 2 3 4 4
10 10 10 9 9 9 10 11 10 10 10 10 10 10 11 10 10 11 10 10 8 7 7 6 3 3 2 2 3 3 3 3 3 3 3 2 2 2 2 2 3 2 2 3 4 4 4 4 4
10 12 11 10 9 10 10 12 11 10 10 11 11 11 11 11 11 12 11 10 8 8 7 6 4 4 4 4 4 4 4 4 4 5 4 4 4 4 4 4 4 4 3 4 4 4 5 5 5
12 13 14 10 10 10 11 14 10 10 10 11 12 12 12 11 11 11 11 9 9 8 8 6 5 6 5 5 5 5 5 5 5 4 5 4 4 4 4 4 4 4 4 5 6 6 7 7 7
13 15 14 12 10 11 12 13 12 11 11 12 12 12 12 13 12 12 11 9 9 8 8 7 7 7 6 7 7 7 8 8 8 7 7 7 5 5 6 7 7 7 8 8 6 7 8 9 9
15 15 13 13 11 12 13 13 12 11 12 12 12 12 12 13 13 12 11 10 9 9 8 7 7 7 7 7 8 9 10 10 10 10 10 9 8 8 8 9 9 9 10 10 9 9 10 11 11
12 14 14 12 11 12 13 13 12 12 12 13 13 12 12 13 13 12 11 10 9 9 8 8 8 7 8 8 9 10 12 12 12 12 12 11 11 11 11 11 12 12 12 13 12 10 12 12 12
12 13 14 12 12 13 13 13 11 12 11 11 11 12 12 14 13 12 11 11 10 10 9 8 7 7 7 8 9 11 12 13 13 13 13 13 12 12 12 13 13 13 14 14 14 14 13 13 14
12 13 14 13 13 13 14 15 13 11 11 11 11 11 11 13 13 13 12 11 11 10 9 8 7 7 9 11 12 12 13 14 14 14 14 14 13 13 13 14 14 14 14 15 15 15 15 15 15
14 11 12 12 14 16 14 18 15 13 12 12 11 12 12 13 13 12 12 12 11 11 9 9 9 10 11 11 12 13 14 15 16 15 15 15 14 14 14 14 14 14 15 15 15 15 15 16 16
13 12 12 13 15 16 16 18 16 13 13 11 12 12 13 14 13 13 12 12 12 12 11 11 10 11 12 12 13 14 15 15 15 15 16 16 15 15 15 15 15 15 15 16 16 16 16 16 16
11 12 13 14 15 19 15 16 16 14 12 11 13 14 14 14 14 13 13 13 14 14 13 13 14 14 13 13 14 14 15 15 16 16 16 16 16 16 16 15 16 16 16 16 16 16 16 16 16
12 14 18 19 20 19 16 17 14 13 12 12 12 14 14 14 15 14 15 15 16 16 16 15 15 15 14 14 15 15 15 15 16 16 16 16 16 17 17 17 17 17 16 16 16 16 16 16 17
14 14 18 22 21 20 18 19 16 13 12 13 12 12 14 15 14 15 15 15 16 16 16 16 16 15 15 15 15 15 15 15 15 15 16 16 16 17 17 17 17 17 16 16 16 17 16 17 17
15 16 13 17 24 22 18 16 14 14 14 15 14 14 15 15 15 16 16 16 16 16 16 16 16 16 16 15 15 15 15 15 15 16 16 17 17 17 17 17 17 17 17 17 17 17 18 17 17
14 13 17 18 23 24 19 19 16 16 15 15 15 15 15 15 16 16 16 16 16 15 17 17 16 16 16 16 15 15 16 16 16 16 17 17 17 17 17 17 17 17 17 17 17 18 18 18 18
15 16 15 15 18 21 22 18 14 13 13 15 14 14 15 15 15 15 15 16 15 16 16 16 16 16 16 16 16 16 16 16 16 17 17 17 18 18 18 17 18 18 18 18 18 18 18 18 18
14 14 15 17 19 18 19 16 14 14 13 14 14 13 13 14 15 15 16 16 16 16 17 17 17 16 16 16 16 17 17 17 17 17 18 18 18 18 18 18 18 18 18 18 18 18 18 18 17